Regional Weather Roundup
Issued by NWS

Home | Current Version | Previous Version | Graphics & Text | Print | Product List | Glossary On
Versions: 1 2 3 4 5 6 7 8 9 10 11 12 13 14 15 16 17 18 19 20 21 22 23 24 25 26 27 28 29 30 31 32 33 34 35 36 37 38 39 40 41 42 43 44 45 46 47 48 49 50
000
ASUS45 KTFX 220719
RWRMT
MONTANA HOURLY WEATHER ROUNDUP
NATIONAL WEATHER SERVICE GREAT FALLS MT
119 AM MDT TUE JUL 22 2014

NOTE: "FAIR" INDICATES FEW OR NO CLOUDS BELOW 12000 FEET WITH NO
SIGNIFICANT WEATHER AND/OR OBSTRUCTIONS TO VISIBILITY.

* THESE STATIONS ARE NOT UNDER NWS QUALITY CONTROL. THEY DO NOT
   REPORT WEATHER SUCH AS PRECIPITATION OR FOG.

MTZ001>007-043-220800-
WEST OF THE DIVIDE
CITY           SKY/WX    TMP DP  RH WIND       PRES   REMARKS
KALISPELL      MOCLDY    54  45  72 CALM      30.07R
MISSOULA       MOCLDY    59  36  42 NW5       30.10R
BUTTE          LGT RAIN  57  52  83 S14       30.21R
MULLAN PASS    MOCLDY    55  30  39 S6        30.20S
* ESSEX        N/A       54  44  69 SE7G12     N/A
* LINCOLN      N/A       54  51  90 NW2        N/A
* LOOKOUT PASS N/A       52  37  57 S3         N/A
* POLSON       N/A       57  35  44 N/A        N/A
* RONAN APT    MOCLDY    52  48  86 N/A        N/A
* SEELEY LAKE  N/A       49  42  77 E2         N/A
* THOMP F APT  MOCLDY    57  44  62 SW1G10     N/A
* YAAK HILL    N/A       58  45  62 N/A        N/A
$$

MTZ008-052>055-220800-
SOUTHWEST MONTANA
CITY           SKY/WX    TMP DP  RH WIND       PRES   REMARKS
BOZEMAN        MOCLDY    64  55  73 N8        30.14R
DILLON         CLOUDY    63  55  75 NE10      30.15R
W YELLOWSTONE  FOG       48  48 100 CALM      30.30F
* THREE FORKS  CLOUDY    70  70 100 N/A        N/A
* BOULDER HILL N/A       59  40  50 N6         N/A
* MONIDA PASS  N/A       58  43  58 S9G14      N/A
* RAYNOLDS PAS N/A       55  40  57 S13        N/A
* WHITEHALL    N/A       65  56  73 NE4G11     N/A
* WISE RIVER   N/A       62  47  58 SE6        N/A
$$

MTZ009>010-012-014-046-048-049-054-220800-
EAST SLOPES AND CENTRAL MONTANA
CITY           SKY/WX    TMP DP  RH WIND       PRES   REMARKS
CUT BANK       PTCLDY    55  50  83 CALM      30.13R
GREAT FALLS    PTCLDY    55  43  64 N3        30.11R
HELENA         MOCLDY    66  52  61 W5        30.12F
MALMSTROM AFB  PTCLDY    63  45  52 VRB1      30.13R
* CONRAD       CLEAR     55  54  96 N/A        N/A
* DEARBORN     N/A       70  43  38 SE1        N/A
* EAST GLACIER N/A       49  40  71 NW3        N/A
* MONARCH      N/A       56  39  53 SE4        N/A
* PENDROY      N/A       55  51  86 E7         N/A
* ROGERS PASS  N/A       52  49  90 NW7        N/A
* SAINT MARY   N/A       45  40  83 SE3        N/A
* SWEET GRASS  N/A       58  54  87 NE8        N/A
* WHITE SULPH  N/A       58  54  87 N3         N/A
$$

MTZ011-013-016-021-035-040-045-047-050-051-220800-
NORTH CENTRAL MONTANA
CITY           SKY/WX    TMP DP  RH WIND       PRES   REMARKS
HAVRE          CLEAR     61  54  78 E3        30.09R
LEWISTOWN      PTCLDY    57  54  90 S3        30.15R
* FORT BENTON  PTCLDY    63  52  68 CALM      30.10R
* CHESTER      N/A       59  52  78 NE4        N/A
* DENTON       N/A       55  51  86 E1         N/A
* GEYSER       N/A       58  46  65 S11        N/A
* JUDITH GAP   N/A       59  58  97 NW4G10     N/A
* LOMA         N/A       62  54  75 NE3        N/A
$$

MTZ017>020-022>027-061-062-220800-
NORTHEAST MONTANA
CITY           SKY/WX    TMP DP  RH WIND       PRES   REMARKS
GLASGOW        CLEAR     61  55  81 E8        30.06R
GLENDIVE       CLEAR     64  57  78 S5        30.10R
JORDAN         MOCLDY    68  57  68 SE6       30.07R
SIDNEY         FAIR      61  55  81 W3        30.08R
WOLF POINT     PTCLDY    59  54  84 N3        30.07R
* BEAVER HILL  N/A       62  60  93 SE8        N/A
* CIRCLE       N/A       65  60  84 N/A        N/A
* LINDSAY DVD  N/A       60  55  84 NE4        N/A
* NAVAJO       N/A       61  60  97 SW8        N/A
* SACO         N/A       58  54  87 N2         N/A
$$

MTZ028>042-056>058-220800-
SOUTHCENTRAL AND SOUTHEAST MONTANA
CITY           SKY/WX    TMP DP  RH WIND       PRES   REMARKS
BAKER          PTCLDY    59  57  93 SE6       30.11R
BILLINGS       CLOUDY    66  54  65 N3        30.12R
LIVINGSTON     CLOUDY    64  50  61 E7        30.15R
MILES CITY     PTCLDY    66  55  68 NE9       30.06R
* LAUREL APT   CLOUDY    64  48  56 N/A        N/A
* ROUNDUP APT  MOCLDY    61  55  81 N/A        N/A
* HYSHAM       N/A       64  51  63 W4         N/A
* LAME DEER    N/A       67  52  59 NE4        N/A
* REED POINT   N/A       62  56  81 W2         N/A
* ROSCOE HILL  N/A       61  47  60 S1         N/A
$$

REGIONAL REPORTS...DAKOTAS
CITY           SKY/WX    TMP DP  RH WIND       PRES   REMARKS
WILLISTON      PTCLDY    57  55  93 CALM      30.05R
DICKINSON      FOG       57  57 100 W6        30.08R
CROSBY         N/A       57  57 100 CALM      30.06R
TIOGA          FOG       50  50 100 CALM      30.10R VSB 3/4
WATFORD CITY   FOG       54  54 100 CALM      30.05R VSB 2 1/2
BISMARCK       PTCLDY    64  63  97 NW6       30.00R
GRAND FORKS    CLOUDY    66  64  93 NW14      29.84R
FARGO          MOCLDY    68  64  87 N12       29.83R
BUFFALO SD     CLOUDY    63  61  93 NE8       30.04R
RAPID CITY     PTCLDY    66  63  90 N9        30.10F
$$

REGIONAL REPORTS...WYOMING/IDAHO/WASHINGTON
CITY           SKY/WX    TMP DP  RH WIND       PRES   REMARKS
GILLETTE       CLEAR     61  57  87 S7        30.16R
SHERIDAN       PTCLDY    61  55  81 SE7       30.12F
CODY           CLOUDY    72  43  35 SW9G17    30.19F
YELLOWSTONE LA PTCLDY    46  45  96 CALM      30.42S
SALMON         CLOUDY    70  45  41 SE3       30.07R
MULLAN PASS    MOCLDY    55  30  39 S6        30.20S
SAND POINT     MOCLDY    54  54 100 CALM      30.05R
SPOKANE        CLOUDY    70  43  38 E5        30.01S
$$

REGIONAL REPORTS...ALBERTA
CITY           SKY/WX    TMP DP  RH WIND       PRES   REMARKS
LETHBRIDGE     CLEAR     55  52  90 CALM      30.12R
MEDICINE HAT   CLEAR     55  52  90 SE3       30.11R
EDMONTON       FAIR      50  46  86 SE5       30.07R
WATERTON GATE  N/A       52  50  93 CALM       N/A
CARDSTON       N/A       54  52  93 W1         N/A
MILK RIVER     N/A       52  48  86 E5         N/A
$$

REGIONAL REPORTS...SASKATCHEWAN
CITY           SKY/WX    TMP DP  RH WIND       PRES   REMARKS
SWIFT CURRENT  FOG       55  54  96 NW3       30.10R VSB M1/4
REGINA         CLOUDY    61  59  93 VRB2      30.07R
VAL MARIE      N/A       52  50  93 N5         N/A
ASSINIBOIA     N/A       57  55  93 N3         N/A
CORONACH       N/A       57  55  93 W2         N/A

$$




USA.gov is the U.S. government's official web portal to all federal, state and local government web resources and services.